Weather History for YSCB - September, 2012

Change the Weather History Date:

Thursday, September 6, 2012

  Actual Average Record
Temperature  
Mean Temperature 53 °F -  
Max Temperature 60 °F 62 °F - ()
Min Temperature 46 °F 39 °F - ()
Degree Days  
Heating Degree Days 12    
Growing Degree Days 3 (Base 50)    
Moisture  
Dew Point 39 °F    
Average Humidity 55    
Maximum Humidity 82    
Minimum Humidity 33    
Precipitation  
Precipitation 0.00 in 0.08 in - ()
Sea Level Pressure  
Sea Level Pressure 29.77 in    
Wind  
Wind Speed 16 mph ()    
Max Wind Speed 28 mph    
Max Gust Speed 36 mph    
Visibility 6.3 miles    
Events      
T = Trace of Precipitation, MM = Missing Value Source: Averaged Metar Reports

Daily Weather History Graph

Daily Weather History Graph

Search for Another Location

Airport or City:

Trip Planner

Search our weather history database for the weather conditions in past years. The results will help you decide how hot, cold, wet, or windy it might be!

Date:

Astronomy

Sep. 06, 2012 Rise Set
Actual Time 6:15 AM AEST 5:47 PM AEST
Civil Twilight 5:50 AM AEST 6:13 PM AEST
Nautical Twilight 5:21 AM AEST 6:42 PM AEST
Astronomical Twilight 4:51 AM AEST 7:12 PM AEST
Moon 11:16 PM AEST (9/6) 9:00 AM AEST (9/6)
Length of Visible Light 12h 22m
Length of Day
11h 31m
Waning Gibbous, 73% of the Moon is Illuminated
Sep 6
Waning Gibbous
Sep 8
Last Quarter
Sep 16
New
Sep 23
First Quarter
Sep 30
Full

Hourly Weather History & Observations

Time (AEST) Temp. Dew Point Humidity Pressure Visibility Wind Dir Wind Speed Gust Speed Precip Events Conditions
12:00 AM 54 °F 49 °F 76% 29.71 in - NNW 17.3 mph - -   Overcast
12:00 AM 53.6 °F 48.2 °F 82% 29.68 in 6.2 mi NNW 17.3 mph - N/A   Overcast
12:30 AM 53.6 °F 48.2 °F 82% 29.68 in 6.2 mi NNW 13.8 mph - N/A   Overcast
1:00 AM 53 °F 48 °F 77% 29.71 in - NNW 15.0 mph - -  
1:00 AM 53.6 °F 48.2 °F 82% 29.71 in 6.2 mi NNW 15.0 mph - N/A   Mostly Cloudy
1:30 AM 53.6 °F 46.4 °F 77% 29.68 in 6.2 mi NNW 13.8 mph - N/A   Overcast
2:00 AM 53.6 °F 44.6 °F 72% 29.68 in 6.2 mi NNW 13.8 mph - N/A   Scattered Clouds
2:30 AM 51.8 °F 42.8 °F 71% 29.68 in 6.2 mi NW 12.7 mph - N/A   Unknown
3:00 AM 51 °F 43 °F 65% 29.72 in - NW 11.5 mph - -  
3:00 AM 51.8 °F 42.8 °F 71% 29.71 in 6.2 mi NW 11.5 mph - N/A   Unknown
3:30 AM 50.0 °F 42.8 °F 76% 29.71 in 6.2 mi NW 10.4 mph - N/A   Unknown
4:00 AM 49 °F 39 °F 59% 29.73 in - NW 11.5 mph - -  
4:00 AM 50.0 °F 39.2 °F 66% 29.71 in 6.2 mi NW 11.5 mph - N/A   Unknown
4:30 AM 50.0 °F 37.4 °F 62% 29.71 in 6.2 mi NW 11.5 mph - N/A   Partly Cloudy
5:00 AM 48.2 °F 35.6 °F 62% 29.74 in 6.2 mi North 15.0 mph - N/A   Partly Cloudy
5:30 AM 48.2 °F 35.6 °F 62% 29.74 in - NW 16.1 mph - N/A   Clear
6:00 AM 49 °F 36 °F 50% 29.77 in - NW 18.4 mph - -  
6:00 AM 48.2 °F 35.6 °F 62% 29.74 in 6.2 mi NW 18.4 mph - N/A   Partly Cloudy
6:30 AM 48.2 °F 37.4 °F 66% 29.77 in 6.2 mi NNW 17.3 mph - N/A   Partly Cloudy
7:00 AM 49 °F 36 °F 50% 29.79 in - NW 15.0 mph - -  
7:00 AM 50.0 °F 35.6 °F 58% 29.77 in 6.2 mi NW 15.0 mph - N/A   Partly Cloudy
7:30 AM 50.0 °F 35.6 °F 58% 29.77 in 6.2 mi NW 17.3 mph - N/A   Partly Cloudy
8:00 AM 51.8 °F 35.6 °F 54% 29.80 in 6.2 mi NW 17.3 mph - N/A   Partly Cloudy
8:30 AM 51.8 °F 35.6 °F 54% 29.80 in 6.2 mi NNW 19.6 mph - N/A   Partly Cloudy
9:00 AM 54 °F 37 °F 42% 29.82 in 12 mi NNW 19.6 mph - -   Partly Cloudy
9:00 AM 53.6 °F 37.4 °F 54% 29.80 in 6.2 mi NNW 19.6 mph - N/A   Partly Cloudy
9:26 AM 55.4 °F 39.2 °F 54% 29.80 in 6.2 mi WNW 23.0 mph - N/A   Scattered Clouds
9:30 AM 55.4 °F 39.2 °F 54% 29.80 in 6.2 mi WNW 23.0 mph - N/A   Scattered Clouds
10:00 AM 56 °F 40 °F 43% 29.82 in - NW 25.3 mph - -  
10:00 AM 55.4 °F 39.2 °F 54% 29.80 in 6.2 mi NW 25.3 mph - N/A   Scattered Clouds
10:30 AM 57.2 °F 39.2 °F 51% 29.80 in 6.2 mi WNW 21.9 mph - N/A   Scattered Clouds
11:00 AM 57.2 °F 39.2 °F 51% 29.80 in 6.2 mi WNW 21.9 mph - N/A   Scattered Clouds
11:30 AM 59.0 °F 39.2 °F 48% 29.80 in 6.2 mi NW 23.0 mph - N/A   Scattered Clouds
12:00 PM 60 °F 39 °F 34% 29.81 in - NW 27.6 mph - -  
12:00 PM 60.8 °F 39.2 °F 45% 29.80 in 6.2 mi NW 27.6 mph - N/A   Scattered Clouds
12:29 PM 57.2 °F 37.4 °F 48% 29.77 in 6.2 mi WNW 24.2 mph 35.7 mph N/A   Mostly Cloudy
12:30 PM 57.2 °F 37.4 °F 48% 29.77 in 6.2 mi WNW 24.2 mph - N/A   Mostly Cloudy
1:00 PM 60 °F 38 °F 33% 29.79 in - WNW 25.3 mph - -  
1:05 PM 59.0 °F 39.2 °F 48% 29.77 in 6.2 mi WNW 23.0 mph 34.5 mph N/A   Mostly Cloudy
1:37 PM 60.8 °F 37.4 °F 42% 29.77 in 6.2 mi WNW 23.0 mph 35.7 mph N/A   Mostly Cloudy
2:00 PM 60.8 °F 39.2 °F 45% 29.77 in 6.2 mi NW 24.2 mph - N/A   Mostly Cloudy
2:16 PM 59.0 °F 37.4 °F 45% 29.77 in 6.2 mi NW 23.0 mph 34.5 mph N/A   Mostly Cloudy
2:34 PM 59.0 °F 39.2 °F 48% 29.77 in 6.2 mi NW 23.0 mph 34.5 mph N/A   Mostly Cloudy
3:00 PM 58 °F 39 °F 37% 29.79 in - NW 23.0 mph - -   Overcast
3:00 PM 59.0 °F 39.2 °F 48% 29.77 in 6.2 mi NW 23.0 mph 35.7 mph N/A   Mostly Cloudy
3:30 PM 59.0 °F 37.4 °F 45% 29.77 in 6.2 mi NW 21.9 mph - N/A   Scattered Clouds
4:00 PM 58 °F 37 °F 34% 29.78 in - NW 24.2 mph - -  
4:00 PM 59.0 °F 37.4 °F 45% 29.77 in 6.2 mi NW 24.2 mph - N/A   Scattered Clouds
4:10 PM 60.8 °F 37.4 °F 42% 29.77 in 6.2 mi NW 21.9 mph 33.4 mph N/A   Scattered Clouds
4:30 PM 59.0 °F 37.4 °F 45% 29.77 in 6.2 mi WNW 21.9 mph 33.4 mph N/A   Scattered Clouds
4:50 PM 59.0 °F 37.4 °F 45% 29.77 in 6.2 mi NNW 24.2 mph - N/A   Scattered Clouds
5:00 PM 57.2 °F 37.4 °F 48% 29.77 in 6.2 mi NW 23.0 mph - N/A   Scattered Clouds
5:30 PM 55.4 °F 37.4 °F 51% 29.77 in 6.2 mi NW 17.3 mph - N/A   Partly Cloudy
6:00 PM 54 °F 37 °F 40% 29.80 in - NW 16.1 mph - -  
6:00 PM 55.4 °F 37.4 °F 51% 29.77 in 6.2 mi NW 16.1 mph - N/A   Partly Cloudy
6:30 PM 53.6 °F 37.4 °F 54% 29.80 in 6.2 mi NW 11.5 mph - N/A   Partly Cloudy
7:00 PM 51 °F 36 °F 46% 29.81 in - NNW 9.2 mph - -  
7:00 PM 50.0 °F 37.4 °F 62% 29.80 in - NNW 9.2 mph - N/A   Clear
7:30 PM 50.0 °F 35.6 °F 58% 29.80 in 6.2 mi NNW 10.4 mph - N/A   Unknown
8:00 PM 50.0 °F 35.6 °F 58% 29.80 in 6.2 mi NNW 9.2 mph - N/A   Unknown
8:30 PM 48.2 °F 35.6 °F 62% 29.80 in 6.2 mi NNW 9.2 mph - N/A   Unknown
9:00 PM 49 °F 36 °F 50% 29.80 in - NNW 8.1 mph - -  
9:00 PM 48.2 °F 35.6 °F 62% 29.80 in 6.2 mi NNW 8.1 mph - N/A   Unknown
9:30 PM 48.2 °F 35.6 °F 62% 29.77 in 6.2 mi North 6.9 mph - N/A   Unknown
10:00 PM 49 °F 35 °F 47% 29.79 in - North 8.1 mph - -  
10:00 PM 48.2 °F 35.6 °F 62% 29.77 in 6.2 mi North 8.1 mph - N/A   Unknown
10:30 PM 48.2 °F 35.6 °F 62% 29.77 in 6.2 mi North 9.2 mph - N/A   Unknown
11:00 PM 50.0 °F 33.8 °F 54% 29.74 in 6.2 mi NNW 12.7 mph - N/A   Unknown
11:30 PM 50.0 °F 33.8 °F 54% 29.74 in 6.2 mi North 13.8 mph - N/A   Unknown